THORAD AGENA D DEB, 4652

Orbit data source: Space-Track

THORAD AGENA D DEB, 4652 is space debris in SSO originally from a launch on Wed, 08 Apr 1970 UTC launched from the Air Force Western Test Range (AFWTR). Debris objects in space refer to the collection of defunct objects orbiting the Earth. Examples of debris include non-operational satellites, rocket bodies, and fragments generated from explosions, collisions, or faulty payload assembly.

Loading next visibility...
Identifier
4652, 1970-025AL
Orbit
SSO
Country
Flag of USUS
Related business
Manufacturer
Unknown
Mission
Spacecraft
Bus & Motor
Unknown
Mass
Unknown
Launch date (UTC)
1970-04-08 (55 years ago)
Launch vehicle
Unknown
Launch site
Air Force Western Test Range (AFWTR)
Object type
Payload
Rocket body
Debris
Shape & HBR
Unknown
Radar Cross Section
Small (<0.1 m²)

Expand to show TLE details & history
Last TLE update: 1 day ago

TLE from 1 day ago
0 THORAD AGENA D DEB
1 04652U 70025AL  25259.35920313  .00000943  00000-0  80061-3 0  9994
2 04652  99.5927  39.8950 0030844 230.4862 157.6597 13.89947937779179
Epoch: 2025-09-16T08:37Z
TLE epoch observation values (Epoch: 2025-09-16T08:37:15.15Z)
Latitude
27.89199°
Longitude
-90.07415°
Altitude
953.034 km
Speed
7.367 km/s
True Right ascension
02h 19m 09s
True Declination
27° 45' 14"
Sunlit
Object was in full shadow at epoch
Visualization orbit readout
Latitude
Unknown
Longitude
Unknown
Altitude
Unknown
Speed
Unknown
Apparent Right ascension
Unknown
Apparent Declination
Unknown
Sunlit
N/A
Visualization observer readout
Local Sidereal Time
07:37:59
Azimuth
Unknown
Elevation
Unknown
Doppler factor
Unknown
Orbital elements
Apogee altitude
948.585 km
Perigee altitude
903.527 km
Semi-major axis
7,304.193 km
Eccentricity
0.00308
Inclination
99.5927°
RAAN
39.895°
Arg. of periapsis
230.4862°
True anomaly
157.79357°
Mean anomaly
157.6597°
Eccentric anomaly
157.72668°
Mean motion
3.47684 °/min
Orbital period
103.54 mins
BSTAR
0.00080061
Loading maneuver chart data...
Computing Atmospheric mass density...

Documentation

Showing up to 5 results
|